User: anonymous   Login
Location: Sungai Jaoh
(2.9167°N, 113.9167°E)
Time: 08:27:28
(UTC+00:00)
Language:

FENGYUN 1C DEB - Orbit

View from above orbital plane
View from above orbital plane
View from above satellite
View from above satellite

Ground track
Ground track

The orbit data is extracted from the following two-line orbital elements,

1 30941U 99025BAF 21170.93098261  .00000772  00000-0  41437-3 0  9999
2 30941  98.6413  50.5366 0041500  17.7041 342.5569 14.15413621733774
Epoch (UTC): 19 June 2021 22:20:36
Eccentricity: 0.0041500
inclination: 98.6413°
perigee height: 811 km
apogee height: 871 km
right ascension of ascending node: 50.5366°
argument of perigee: 17.7041°
revolutions per day: 14.15413621
mean anomaly at epoch: 342.5569°
orbit number at epoch: 73377

The dashed part of the orbit path shows where the satellite is in the earth's shadow,  

DLR